Date String (YYYY-MM-DD hh:mm:ss) UTC,Instrument flags,absolute air pressure of the measurement (hPa),sample flow rate (lpm),inlet stack bypass flow (lpm),air temperature of the measurement (°C),ambient temperature measured by the external sensor (°C),aerosol sample conditioner tube jacket temperature (°C),OPC LED temperature (°C),internal box temperature (°C),relative humidity of the measurement (%),span deviation,mass concentration of particles derived from Lorenz-Mie calculation of OPC scattering (μg/m³),mass concentration of particles derived from Lorenz-Mie calculation of OPC scattering (μg/m³),mass concentration of particles derived from Lorenz-Mie calculation of OPC scattering (μg/m³)
DateTimeUTC,F1_M11,P_M11,Q1_M11,Q2_M11,T1_M11,T2_M11,T3_M11,T4_M11,T5_M11,U1_M11,ZSPAN_M11,X0_M11,X2_M11,X1_M11
2023-06-14 17:00:00,SystemResetWarning,0827.8,5.00,000.00,029.7,028.3,000.0,038.2,031.3,25.4,0000.0,0004.95,0002.87,0002.35
2023-06-14 17:01:00,SystemResetWarning,0827.8,5.00,000.00,029.7,028.2,000.0,038.2,031.4,24.2,0000.0,0005.18,0002.96,0002.37
2023-06-14 17:02:00,SystemResetWarning,0827.7,4.99,000.00,029.8,026.5,000.0,038.2,031.4,24.8,0000.0,0005.26,0003.01,0002.39
2023-06-14 17:03:00,SystemResetWarning,0827.8,5.01,000.00,029.8,025.7,000.0,038.2,031.3,24.1,0000.0,0005.26,0003.01,0002.39
2023-06-14 17:04:00,SystemResetWarning,0827.6,5.01,000.00,029.7,025.9,000.0,038.2,031.1,24.5,0000.0,0005.27,0003.00,0002.39
2023-06-14 17:05:00,SystemResetWarning,0827.4,5.00,000.00,029.6,026.1,000.0,038.2,031.0,23.6,0000.0,0005.97,0003.04,0002.41
2023-06-14 17:06:00,SystemResetWarning,0827.4,5.00,000.00,029.6,026.5,000.0,038.1,031.0,24.8,0000.0,0006.08,0003.11,0002.44
2023-06-14 17:07:00,SystemResetWarning,0827.4,4.99,000.00,029.6,026.8,000.0,038.1,031.0,24.5,0000.0,0006.00,0003.11,0002.46
2023-06-14 17:08:00,SystemResetWarning,0827.4,4.99,000.00,029.6,027.0,000.0,038.1,031.0,25.2,0000.0,0006.34,0003.11,0002.45
2023-06-14 17:09:00,SystemResetWarning,0827.4,5.01,000.00,029.6,027.3,000.0,038.1,031.1,26.5,0000.0,0006.27,0003.11,0002.47
2023-06-14 17:10:00,SystemResetWarning,0827.4,5.01,000.00,029.6,027.5,000.0,038.1,031.1,26.4,0000.0,0006.57,0003.16,0002.47
2023-06-14 17:11:00,SystemResetWarning,0827.4,5.00,000.00,029.6,027.6,000.0,038.1,031.1,26.2,0000.0,0006.83,0003.21,0002.49
2023-06-14 17:12:00,SystemResetWarning,0827.4,5.00,000.00,029.6,027.8,000.0,038.1,031.1,25.1,0000.0,0006.81,0003.19,0002.50
2023-06-14 17:13:00,SystemResetWarning,0827.4,5.00,000.00,029.6,027.9,000.0,038.1,031.2,24.7,0000.0,0007.40,0003.20,0002.51
2023-06-14 17:14:00,SystemResetWarning,0827.4,5.00,000.00,029.6,028.0,000.0,038.1,031.2,24.7,0000.0,0007.63,0003.24,0002.53
2023-06-14 17:15:00,SystemResetWarning,0827.4,5.00,000.00,029.6,028.0,000.0,038.1,031.2,23.9,0000.0,0007.67,0003.26,0002.56
2023-06-14 17:16:00,SystemResetWarning,0827.4,5.00,000.00,029.6,028.1,000.0,038.2,031.2,24.1,0000.0,0007.36,0003.25,0002.57
2023-06-14 17:17:00,SystemResetWarning,0827.4,4.99,000.00,029.6,028.1,000.0,038.2,031.2,24.4,0000.0,0007.31,0003.26,0002.59
2023-06-14 17:18:00,SystemResetWarning,0827.4,5.00,000.00,029.7,028.1,000.0,038.2,031.2,24.9,0000.0,0007.25,0003.26,0002.60
2023-06-14 17:19:00,SystemResetWarning,0827.4,5.00,000.00,029.7,028.2,000.0,038.2,031.3,25.4,0000.0,0007.00,0003.29,0002.62
2023-06-14 17:20:00,SystemResetWarning,0827.4,5.00,000.00,029.7,027.7,000.0,038.2,031.3,24.9,0000.0,0007.14,0003.32,0002.64
2023-06-14 17:21:00,SystemResetWarning,0827.4,5.00,000.00,029.7,025.9,000.0,038.1,031.3,25.0,0000.0,0006.87,0003.32,0002.67
2023-06-14 17:22:00,SystemResetWarning,0827.4,5.00,000.00,029.7,025.6,000.0,038.1,031.2,24.3,0000.0,0006.40,0003.28,0002.68
2023-06-14 17:23:00,SystemResetWarning,0827.3,5.02,000.00,029.6,025.8,000.0,038.1,031.0,25.4,0000.0,0006.75,0003.32,0002.70
2023-06-14 17:24:00,SystemResetWarning,0827.4,4.99,000.00,029.6,026.1,000.0,038.1,030.9,26.2,0000.0,0006.32,0003.33,0002.70
2023-06-14 17:25:00,SystemResetWarning,0827.4,5.00,000.00,029.5,026.4,000.0,038.1,030.9,26.1,0000.0,0006.23,0003.36,0002.72
2023-06-14 17:26:00,SystemResetWarning,0827.3,5.00,000.00,029.5,026.7,000.0,038.1,030.9,26.4,0000.0,0006.54,0003.41,0002.75
2023-06-14 17:27:00,SystemResetWarning,0827.4,5.01,000.00,029.5,027.0,000.0,038.1,031.0,26.4,0000.0,0006.70,0003.46,0002.77
2023-06-14 17:28:00,SystemResetWarning,0827.3,5.00,000.00,029.5,027.2,000.0,038.1,031.0,27.0,0000.0,0007.06,0003.44,0002.76
2023-06-14 17:29:00,SystemResetWarning,0827.4,5.00,000.00,029.5,027.4,000.0,038.1,031.0,26.6,0000.0,0007.59,0003.46,0002.78
2023-06-14 17:30:00,SystemResetWarning,0827.3,5.00,000.00,029.5,027.6,000.0,038.1,031.1,27.8,0000.0,0007.67,0003.47,0002.80
2023-06-14 17:31:00,SystemResetWarning,0827.3,5.00,000.00,029.5,027.7,000.0,038.1,031.1,28.4,0000.0,0007.74,0003.47,0002.82
2023-06-14 17:32:00,SystemResetWarning,0827.3,5.00,000.00,029.5,027.8,000.0,038.1,031.1,28.1,0000.0,0007.91,0003.50,0002.83
2023-06-14 17:33:00,SystemResetWarning,0827.3,5.00,000.00,029.6,027.9,000.0,038.1,031.1,27.0,0000.0,0008.26,0003.54,0002.87
2023-06-14 17:34:00,SystemResetWarning,0827.3,4.98,000.00,029.6,028.0,000.0,038.1,031.2,27.6,0000.0,0009.05,0003.56,0002.90
2023-06-14 17:35:00,SystemResetWarning,0827.3,5.00,000.00,029.6,028.1,000.0,038.1,031.2,26.0,0000.0,0008.99,0003.61,0002.95
2023-06-14 17:36:00,SystemResetWarning,0827.3,5.00,000.00,029.6,028.2,000.0,038.1,031.2,25.7,0000.0,0009.03,0003.59,0002.98
2023-06-14 17:37:00,SystemResetWarning,0827.2,4.99,000.00,029.7,027.8,000.0,038.1,031.3,25.7,0000.0,0009.30,0003.58,0003.00
2023-06-14 17:38:00,SystemResetWarning,0827.2,5.00,000.00,029.7,026.0,000.0,038.1,031.3,26.0,0000.0,0009.17,0003.56,0003.02
2023-06-14 17:39:00,SystemResetWarning,0827.1,5.02,000.00,029.7,025.5,000.0,038.0,031.2,25.6,0000.0,0009.44,0003.59,0003.06
2023-06-14 17:40:00,SystemResetWarning,0827.1,5.00,000.00,029.6,025.8,000.0,038.0,031.0,26.5,0000.0,0009.30,0003.62,0003.09
2023-06-14 17:41:00,SystemResetWarning,0827.1,4.99,000.00,029.5,026.1,000.0,038.0,030.8,27.3,0000.0,0009.48,0003.66,0003.10
2023-06-14 17:42:00,SystemResetWarning,0827.1,4.99,000.00,029.5,026.4,000.0,038.0,030.8,28.5,0000.0,0009.39,0003.65,0003.11
2023-06-14 17:43:00,SystemResetWarning,0827.2,5.01,000.00,029.4,026.6,000.0,038.0,030.9,26.5,0000.0,0009.29,0003.64,0003.13
2023-06-14 17:44:00,SystemResetWarning,0827.1,5.00,000.00,029.4,026.9,000.0,038.0,030.9,26.6,0000.0,0009.21,0003.66,0003.14
2023-06-14 17:45:00,SystemResetWarning,0827.2,4.99,000.00,029.4,027.1,000.0,038.0,030.9,27.8,0000.0,0008.25,0003.66,0003.15
2023-06-14 17:46:00,SystemResetWarning,0827.2,5.00,000.00,029.4,027.3,000.0,038.0,030.9,27.8,0000.0,0008.14,0003.63,0003.15
2023-06-14 17:47:00,SystemResetWarning,0827.1,5.00,000.00,029.4,027.4,000.0,038.0,030.9,27.3,0000.0,0008.23,0003.66,0003.15
2023-06-14 17:48:00,SystemResetWarning,0827.1,5.00,000.00,029.4,027.6,000.0,038.0,031.0,28.2,0000.0,0007.87,0003.69,0003.16
2023-06-14 17:49:00,SystemResetWarning,0827.1,5.00,000.00,029.4,027.7,000.0,038.0,031.0,26.8,0000.0,0008.05,0003.74,0003.19
2023-06-14 17:50:00,SystemResetWarning,0827.1,5.00,000.00,029.5,027.8,000.0,038.0,031.1,26.6,0000.0,0008.03,0003.76,0003.22
2023-06-14 17:51:00,SystemResetWarning,0827.1,5.01,000.00,029.5,027.9,000.0,038.0,031.1,27.1,0000.0,0007.68,0003.79,0003.24
2023-06-14 17:52:00,SystemResetWarning,0827.0,5.01,000.00,029.5,028.0,000.0,038.0,031.1,27.7,0000.0,0007.75,0003.81,0003.27
2023-06-14 17:53:00,SystemResetWarning,0827.0,5.00,000.00,029.5,028.1,000.0,038.0,031.2,27.1,0000.0,0007.80,0003.88,0003.30
2023-06-14 17:54:00,SystemResetWarning,0827.0,5.00,000.00,029.6,028.1,000.0,038.0,031.2,26.3,0000.0,0007.84,0003.92,0003.32
2023-06-14 17:55:00,SystemResetWarning,0827.1,4.99,000.00,029.6,028.2,000.0,038.1,031.2,27.1,0000.0,0007.98,0003.98,0003.34
2023-06-14 17:56:00,SystemResetWarning,0827.0,4.99,000.00,029.6,027.2,000.0,038.0,031.3,26.3,0000.0,0008.11,0004.01,0003.36
2023-06-14 17:57:00,SystemResetWarning,0827.0,5.01,000.00,029.6,025.7,000.0,038.0,031.3,27.4,0000.0,0008.56,0004.03,0003.39
2023-06-14 17:58:00,SystemResetWarning,0827.0,5.01,000.00,029.6,025.6,000.0,038.0,031.1,26.6,0000.0,0008.58,0004.04,0003.42
2023-06-14 17:59:00,SystemResetWarning,0827.0,4.99,000.00,029.5,025.9,000.0,038.0,030.9,27.3,0000.0,0008.63,0004.07,0003.45
